[[{"header":{"parameterUnit":"m.s-1","parameterCategory":2,"la1":30.2991,"la2":30.254,"lo1":-89.0895,"lo2":-89.0444,"dy":0.0017,"dx":0.0017,"nx":28,"ny":28,"refTime":"2025-02-05T09:00:00:Z","depth":"0","parameterNumber":2,"parameterNumberName":"U-component_of_CURRENTS"},"data":[0,0,0,0,0,0,0,0,0,0,0,0,0,0,0,0,0,0,0,0,0,0,0,0,0,0,0,0,0,0,0,0,0,0,0,0,0,0,0,0,0,0,0,0,0,0,0,0,0,0,0,0,0,0,0,0,0,0,0.4621,0.4622,0,0.4662,0.4662,0.4662,0.4685,0.4686,0.4686,0.4687,0.4683,0.4682,0.4682,0,0,0,0,0,0,0,0,0,0,0,0,0,0.455,0.4551,0.4621,0.4622,0.4623,0.4662,0.4662,0.4662,0.4685,0.4686,0.4686,0.4687,0.4683,0.4682,0.4682,0,0,0,0,0,0,0,0,0,0,0,0,0,0.458,0.4551,0.4621,0.4643,0.4645,0.4662,0.4662,0.4662,0.4685,0.4686,0.4686,0.4687,0.4683,0.4682,0.4682,0.4662,0,0,0.4679,0.4679,0,0,0,0,0,0,0,0,0.4578,0.4582,0.4639,0.4641,0.4644,0.4673,0.4636,0.4661,0.4685,0.4665,0.4687,0.4687,0.4678,0.4677,0.4678,0.4662,0.4661,0.4679,0.4678,0.4678,0.4678,0,0,0,0,0,0,0,0.4576,0.4581,0.4633,0.464,0.4643,0.4646,0.465,0.464,0.4663,0.4667,0.467,0.4681,0.4679,0.4678,0.4678,0.4661,0.4679,0.4678,0.4678,0.4677,0.4672,0.4672,0,0,0,0,0,0,0.458,0.4579,0.4632,0.4635,0.4617,0.4647,0.4652,0.4659,0.4664,0.4667,0.468,0.4682,0.468,0.4679,0.4678,0.4677,0.4678,0.4677,0.4677,0.4672,0.4672,0.4673,0,0,0,0,0,0,0.4579,0.4584,0.463,0.4611,0.4618,0.4648,0.4656,0.466,0.4666,0.4675,0.4677,0.4683,0.468,0.4679,0.4681,0.4677,0.4677,0.4676,0.4671,0.4672,0.4672,0.4662,0,0,0,0,0,0,0.4576,0.4583,0.4585,0.4611,0.4619,0.464,0.4656,0.466,0.4673,0.4676,0.4678,0.4678,0.4681,0.4682,0.468,0.4676,0.4676,0.4671,0.4672,0.4672,0.4662,0.4662,0.4662,0,0,0,0,0,0.4573,0.4569,0.4584,0.4591,0.4622,0.4641,0.4644,0.4665,0.4673,0.4672,0.4682,0.4678,0.4685,0.4682,0.4679,0.4674,0.4671,0.4671,0.4672,0.4662,0.4662,0.4662,0,0,0,0,0,0,0.4533,0.4572,0.459,0.4597,0.462,0.4646,0.4645,0.4663,0.4669,0.467,0.4678,0.4679,0.4689,0.468,0.4677,0.4677,0.4679,0.4679,0.4672,0.4672,0.4672,0.4701,0.4675,0,0,0,0,0,0.4528,0.4535,0.4575,0.4578,0.459,0.4618,0.4627,0.4644,0.4659,0.4662,0.4668,0.4674,0.4688,0.4679,0.4691,0.4675,0.4698,0.4673,0.4673,0.4673,0.4696,0.4718,0.4723,0.4675,0.4675,0.4675,0,0,0.4512,0.4535,0.4538,0.457,0.4586,0.4602,0.4623,0.4635,0.465,0.4659,0.4666,0.4681,0.469,0.4691,0.4692,0.468,0.4698,0.4674,0.4674,0.4698,0.472,0.4724,0.4728,0.4676,0.4676,0.4676,0,0,0.4484,0.4504,0.4505,0.4526,0.456,0.4581,0.4587,0.4617,0.4631,0.4638,0.4665,0.4683,0.4672,0.4695,0.4701,0.4706,0.4713,0.4698,0.4701,0.4721,0.4725,0.4729,0.4763,0.477,0.4679,0.4679,0.4679,0,0.4466,0.4478,0.4506,0.4517,0.4536,0.4573,0.4584,0.4602,0.4629,0.4643,0.4637,0.4673,0.4681,0.4708,0.4719,0.4708,0.4724,0.4694,0.4721,0.4726,0.473,0.4764,0.4772,0.4679,0.4679,0.4679,0.4679,0,0.4448,0.446,0.446,0.4493,0.4512,0.4524,0.4566,0.4583,0.46,0.4622,0.4653,0.4671,0.4692,0.4694,0.4708,0.4744,0.4748,0.4732,0.4719,0.4734,0.4769,0.4777,0.4678,0.4678,0.4678,0.4678,0,0,0.4406,0.4443,0.4443,0.4457,0.4505,0.4516,0.4546,0.4586,0.4597,0.4625,0.4642,0.4686,0.4703,0.4716,0.4732,0.4753,0.48,0.4754,0.4755,0.4787,0.4855,0.4805,0.481,0.4778,0.4779,0.4781,0.4866,0,0.4389,0.4402,0.4429,0.4441,0.4456,0.4503,0.452,0.456,0.4585,0.4605,0.4651,0.4671,0.4705,0.4708,0.4742,0.4784,0.4822,0.478,0.4838,0.4841,0.4793,0.4818,0.4569,0.4619,0.4874,0.4876,0.4877,0,0.4368,0.4384,0.4395,0.4425,0.4433,0.4443,0.4483,0.4505,0.4556,0.4572,0.4617,0.4649,0.4713,0.472,0.4819,0.4785,0.4838,0.4871,0.4873,0.4843,0.4807,0.4646,0.4625,0.444,0.489,0.4889,0.4888,0,0.4332,0.4357,0.4365,0.4378,0.4417,0.4426,0.4447,0.4492,0.4511,0.4558,0.4567,0.464,0.4662,0.4744,0.4835,0.4822,0.4934,0.4911,0.4931,0.4928,0.4739,0.4717,0.4545,0.5002,0.5002,0.5002,0.5001,0,0.431,0.4312,0.4343,0.4347,0.4348,0.4386,0.4389,0.4422,0.4459,0.4474,0.4545,0.4572,0.4668,0.4744,0.4832,0.491,0.4935,0.4956,0.4949,0.4728,0.4705,0.4555,0.4519,0.5005,0.5004,0.5004,0.5003,0,0.4267,0.4291,0.4296,0.4324,0.4331,0.4329,0.4358,0.4363,0.4399,0.4422,0.444,0.4524,0.4614,0.4724,0.4846,0.4885,0.4826,0.5006,0.4753,0.4715,0.4533,0.4507,0.4328,0.4223,0.502,0.5019,0.5019,0,0.4244,0.4245,0.4268,0.4267,0.4276,0.4283,0.4291,0.4333,0.4346,0.4398,0.441,0.4496,0.4577,0.4732,0.4784,0.4908,0.4791,0.4749,0.4687,0.4501,0.4467,0.4352,0.4269,0.4434,0.4429,0.4424,0.4421,0,0.4201,0.4209,0.4215,0.4214,0.4218,0.4219,0.4233,0.4237,0.4283,0.4307,0.4357,0.4427,0.4544,0.4531,0.4657,0.4702,0.4469,0.4666,0.4508,0.4038,0.3863,0.3763,0.4426,0.4382,0.4386,0.4389,0.4391,0.4393,0.416,0.4153,0.4158,0.4149,0.4158,0.4143,0.4101,0.4131,0.4138,0.412,0.4262,0.4277,0.4253,0.4386,0.4416,0.417,0.4272,0.4018,0.4023,0.3939,0.3755,0.4362,0.4287,0.429,0.4293,0.4296,0.4298,0,0.4087,0.4093,0.4092,0.4072,0.4047,0.4066,0.4048,0.3976,0.3946,0.3992,0.4027,0.3916,0.386,0.3823,0.3632,0.3512,0.3404,0.3391,0.3118,0.3091,0.3629,0.3516,0.3222,0.3222,0.3222,0.3222,0.3223,0.3223,0.4048,0.4019,0.402,0.3958,0.394,0.383,0.3786,0.3705,0.3693,0.3553,0.3452,0.3459,0.3343,0.319,0.2943,0.2886,0.2693,0.2582,0.2665,0.2969,0.3024,0.3077,0.2955,0.2548,0.2548,0.1935,0.1931,0.1927]},{"header":{"parameterUnit":"m.s-1","parameterCategory":2,"la1":30.2991,"la2":30.254,"lo1":-89.0895,"lo2":-89.0444,"dy":0.0017,"dx":0.0017,"nx":28,"ny":28,"refTime":"2025-02-05T09:00:00:Z","depth":"0","parameterNumber":3,"parameterNumberName":"V-component_of_CURRENTS"},"data":[0,0,0,0,0,0,0,0,0,0,0,0,0,0,0,0,0,0,0,0,0,0,0,0,0,0,0,0,0,0,0,0,0,0,0,0,0,0,0,0,0,0,0,0,0,0,0,0,0,0,0,0,0,0,0,0,0,0,-0.0161,-0.0162,0,-0.0195,-0.0196,-0.0196,-0.0228,-0.0229,-0.0229,-0.023,-0.0283,-0.0284,-0.0285,0,0,0,0,0,0,0,0,0,0,0,0,0,-0.0096,-0.0097,-0.0161,-0.0162,-0.0162,-0.0195,-0.0196,-0.0196,-0.0228,-0.0229,-0.0229,-0.023,-0.0283,-0.0284,-0.0285,0,0,0,0,0,0,0,0,0,0,0,0,0,-0.0126,-0.0098,-0.0161,-0.0183,-0.0185,-0.0195,-0.0196,-0.0196,-0.0228,-0.0229,-0.0229,-0.023,-0.0282,-0.0284,-0.0285,-0.0279,0,0,-0.029,-0.029,0,0,0,0,0,0,0,0,-0.0124,-0.0128,-0.0179,-0.0182,-0.0184,-0.0209,-0.0192,-0.0225,-0.0228,-0.0211,-0.023,-0.0231,-0.026,-0.0263,-0.0267,-0.0282,-0.0284,-0.029,-0.0291,-0.0291,-0.0292,0,0,0,0,0,0,0,-0.0122,-0.0127,-0.0174,-0.018,-0.0183,-0.0181,-0.0187,-0.0198,-0.0231,-0.0212,-0.0215,-0.022,-0.0262,-0.0265,-0.0268,-0.0285,-0.029,-0.0291,-0.0292,-0.0292,-0.0285,-0.0284,0,0,0,0,0,0,-0.0121,-0.0125,-0.0173,-0.0175,-0.0156,-0.0182,-0.0188,-0.02,-0.023,-0.0236,-0.0219,-0.0221,-0.0262,-0.0266,-0.027,-0.0252,-0.0291,-0.0293,-0.0293,-0.0286,-0.0285,-0.0283,0,0,0,0,0,0,-0.0119,-0.0125,-0.0172,-0.0151,-0.0157,-0.0183,-0.0195,-0.02,-0.0206,-0.0235,-0.0241,-0.0221,-0.0263,-0.0268,-0.0273,-0.0255,-0.0293,-0.0295,-0.0287,-0.0285,-0.0284,-0.0224,0,0,0,0,0,0,-0.0117,-0.0124,-0.0125,-0.0151,-0.0158,-0.0168,-0.0195,-0.02,-0.0208,-0.0211,-0.0239,-0.0245,-0.0264,-0.0271,-0.0275,-0.0258,-0.0296,-0.0288,-0.0286,-0.0284,-0.0227,-0.0221,-0.0215,0,0,0,0,0,-0.0115,-0.0112,-0.0125,-0.013,-0.0161,-0.0167,-0.017,-0.019,-0.0208,-0.02,-0.0221,-0.0244,-0.0261,-0.0271,-0.0276,-0.0259,-0.0289,-0.0287,-0.0285,-0.023,-0.0222,-0.0215,0,0,0,0,0,0,-0.0082,-0.0115,-0.013,-0.0138,-0.0148,-0.0173,-0.0169,-0.0187,-0.0197,-0.0203,-0.0233,-0.0239,-0.0235,-0.0254,-0.0264,-0.0249,-0.0278,-0.0276,-0.0235,-0.0227,-0.0221,-0.0211,-0.0297,0,0,0,0,0,-0.0076,-0.0083,-0.0111,-0.0114,-0.012,-0.0144,-0.0149,-0.0164,-0.018,-0.0186,-0.0206,-0.0222,-0.0227,-0.0234,-0.0242,-0.0237,-0.0231,-0.0227,-0.0221,-0.0216,-0.0209,-0.0179,-0.0169,-0.0275,-0.0275,-0.0276,0,0,-0.0064,-0.0082,-0.0086,-0.0106,-0.0119,-0.0116,-0.0148,-0.0153,-0.0148,-0.019,-0.0186,-0.0202,-0.022,-0.0211,-0.0211,-0.0226,-0.0179,-0.0212,-0.0208,-0.0205,-0.0175,-0.0165,-0.0155,-0.0274,-0.0274,-0.0274,0,0,-0.0037,-0.006,-0.0055,-0.0062,-0.0078,-0.0092,-0.0092,-0.0115,-0.0121,-0.0121,-0.0145,-0.0146,-0.0163,-0.0165,-0.0171,-0.0134,-0.0146,-0.014,-0.0102,-0.0072,-0.0063,-0.0055,-0.0022,-0.0011,-0.0138,-0.0138,-0.0138,0,-0.0018,-0.0022,-0.005,-0.0044,-0.0044,-0.0079,-0.0066,-0.0074,-0.0094,-0.0091,-0.0112,-0.0117,-0.0137,-0.0117,-0.0107,-0.0119,-0.0104,-0.0131,-0.0063,-0.0055,-0.0048,-0.0016,-0.0005,-0.0135,-0.0135,-0.0136,-0.0136,0,0.0011,0.0011,0.0016,0.0009,0.0009,0.0015,-0.0005,-0.0004,-0.0021,-0.0031,-0.0019,-0.0041,-0.0043,-0.0048,-0.0071,-0.0029,-0.0034,-0.0056,-0.0081,-0.0033,-0.0003,0.0008,-0.013,-0.0131,-0.0132,-0.0133,0,0,0.0051,0.0039,0.0043,0.005,0.0037,0.0041,0.0052,0.0057,0.0067,0.0052,0.0075,0.0063,0.0047,0.004,0.0018,0.0035,0.0096,0.0011,0.0011,0.0047,0.0172,0.0169,0.0179,0.0087,0.0089,0.0091,0.0178,0,0.0087,0.0108,0.0093,0.0122,0.0131,0.0111,0.0127,0.0126,0.0117,0.013,0.0115,0.0124,0.0082,0.0084,0.0097,0.0094,0.0124,0.0075,0.0118,0.012,0.0113,0.0191,0.0191,0.0269,0.0188,0.0189,0.0191,0,0.0124,0.0133,0.0162,0.0176,0.0179,0.019,0.0209,0.0216,0.0221,0.0218,0.0221,0.0204,0.0225,0.018,0.0218,0.0189,0.0191,0.0187,0.019,0.0172,0.0135,0.0205,0.029,0.0127,0.0206,0.0205,0.0204,0,0.0167,0.0185,0.021,0.0214,0.0222,0.0236,0.024,0.0244,0.0257,0.0272,0.0289,0.0299,0.0316,0.0318,0.0305,0.0269,0.0352,0.03,0.0306,0.0306,0.0306,0.0303,0.024,0.0346,0.0345,0.0345,0.0345,0,0.0211,0.0234,0.023,0.0245,0.0281,0.0271,0.0305,0.0309,0.0323,0.036,0.0335,0.0381,0.0353,0.0385,0.0357,0.0379,0.0402,0.0338,0.0337,0.0328,0.0325,0.0181,0.0086,0.0348,0.0348,0.0347,0.0347,0,0.0252,0.0251,0.0281,0.0293,0.0299,0.0321,0.0337,0.0362,0.037,0.0422,0.0435,0.0464,0.0523,0.05,0.0522,0.046,0.0395,0.0469,0.0461,0.0457,0.0276,0.0186,0.0159,0.0101,0.0484,0.0484,0.0485,0,0.0275,0.0292,0.0312,0.033,0.0335,0.0359,0.0379,0.0385,0.0415,0.0486,0.0527,0.0595,0.0681,0.0706,0.0635,0.0617,0.0463,0.0543,0.0463,0.0288,0.0188,0.0122,0.0068,0.0496,0.0496,0.0496,0.0497,0,0.0316,0.0319,0.034,0.0371,0.0394,0.0424,0.0455,0.0493,0.0525,0.0602,0.0725,0.0807,0.0834,0.0852,0.0785,0.0714,0.0413,0.0549,0.0378,0.0208,0.0126,0.0061,0.0408,0.0501,0.05,0.05,0.05,0.05,0.0344,0.0362,0.0381,0.0414,0.0446,0.0497,0.0548,0.0615,0.0715,0.0875,0.0912,0.112,0.1022,0.0961,0.0795,0.0465,0.0477,0.035,0.0266,0.0223,0.0129,0.0484,0.0559,0.0559,0.0559,0.0559,0.0559,0,0.0372,0.0389,0.0422,0.0467,0.0515,0.052,0.0608,0.0697,0.0864,0.1071,0.123,0.1373,0.1194,0.0944,0.0521,0.0238,0.0107,0.0063,-0.0054,-0.0087,0.0245,0.0202,0.0192,0.0193,0.0193,0.0193,0.0193,0.0193,0.0388,0.0419,0.0432,0.0514,0.0556,0.0649,0.0716,0.088,0.1064,0.138,0.1602,0.175,0.1547,0.0649,0.0027,-0.0118,-0.0354,-0.0363,-0.0473,-0.03,-0.0281,-0.0264,-0.0327,-0.0448,-0.0449,-0.0775,-0.0778,-0.0781]}],[{"header":{"parameterUnit":"m.s-1","parameterCategory":2,"la1":30.2991,"la2":30.254,"lo1":-89.0895,"lo2":-89.0444,"dy":0.0017,"dx":0.0017,"nx":28,"ny":28,"refTime":"2025-02-05T09:00:00:Z","depth":"2","parameterNumber":2,"parameterNumberName":"U-component_of_CURRENTS"},"data":[0,0,0,0,0,0,0,0,0,0,0,0,0,0,0,0,0,0,0,0,0,0,0,0,0,0,0,0,0,0,0,0,0,0,0,0,0,0,0,0,0,0,0,0,0,0,0,0,0,0,0,0,0,0,0,0,0,0,0.1762,0.1762,0,0.1856,0.1858,0.1861,0.1896,0.1894,0.1892,0.189,0.1809,0.1808,0.1808,0,0,0,0,0,0,0,0,0,0,0,0,0,0.1825,0.1824,0.1762,0.1762,0.1762,0.1855,0.1859,0.1862,0.1896,0.1894,0.1892,0.1889,0.1809,0.1808,0.1808,0,0,0,0,0,0,0,0,0,0,0,0,0,0.1863,0.1823,0.1763,0.1777,0.1778,0.1855,0.1859,0.1862,0.1897,0.1894,0.1891,0.1888,0.1809,0.1808,0.1808,0.1863,0,0,0.1806,0.1806,0,0,0,0,0,0,0,0,0.186,0.1863,0.1775,0.1776,0.1777,0.1845,0.185,0.1848,0.1898,0.1871,0.189,0.1887,0.1795,0.1796,0.1848,0.1859,0.1856,0.1806,0.1806,0.1806,0.1806,0,0,0,0,0,0,0,0.1857,0.186,0.1818,0.1775,0.1775,0.1849,0.1852,0.1853,0.1859,0.1873,0.1871,0.1854,0.1796,0.1849,0.1845,0.1855,0.1806,0.1806,0.1805,0.1805,0.192,0.1923,0,0,0,0,0,0,0.1801,0.1856,0.1814,0.1819,0.1792,0.1848,0.1852,0.1841,0.1863,0.1859,0.1856,0.1855,0.1851,0.1846,0.1842,0.1872,0.1806,0.1805,0.1805,0.1916,0.1921,0.1924,0,0,0,0,0,0,0.1803,0.1797,0.181,0.1825,0.1829,0.1847,0.1837,0.1844,0.1901,0.1848,0.1845,0.1902,0.1849,0.1843,0.1838,0.1869,0.1805,0.1804,0.1913,0.1918,0.1922,0.1952,0,0,0,0,0,0,0.1805,0.1798,0.179,0.1821,0.1825,0.1826,0.1838,0.1847,0.1885,0.1885,0.1886,0.1876,0.1846,0.184,0.1838,0.1867,0.1804,0.1908,0.1915,0.1921,0.1947,0.1957,0.1967,0,0,0,0,0,0.1807,0.1789,0.179,0.1784,0.1808,0.1823,0.1836,0.1852,0.189,0.1902,0.1914,0.1877,0.1879,0.1841,0.1838,0.1868,0.1905,0.1913,0.192,0.1942,0.1955,0.1966,0,0,0,0,0,0,0.179,0.1791,0.1791,0.1768,0.1779,0.1821,0.1844,0.1873,0.1912,0.1913,0.1902,0.1892,0.1904,0.19,0.1858,0.193,0.1895,0.1903,0.1913,0.1925,0.1935,0.1905,0.1804,0,0,0,0,0,0.1785,0.1796,0.1786,0.1776,0.1785,0.1835,0.1854,0.1857,0.188,0.1901,0.1918,0.1936,0.1944,0.1938,0.1943,0.1974,0.1983,0.2004,0.2014,0.2021,0.2003,0.2074,0.2087,0.1949,0.1949,0.1949,0,0,0.177,0.1778,0.1777,0.1778,0.1813,0.1829,0.1846,0.1863,0.1883,0.1879,0.1946,0.1962,0.1962,0.1988,0.1997,0.1978,0.2072,0.2031,0.2037,0.2013,0.2083,0.2096,0.2107,0.1954,0.1953,0.1952,0,0,0.1762,0.1767,0.1777,0.1794,0.1808,0.1832,0.1838,0.189,0.1917,0.1958,0.1975,0.2002,0.2041,0.2042,0.2046,0.2121,0.2121,0.2155,0.2171,0.2242,0.2252,0.2261,0.2301,0.2313,0.216,0.2161,0.2161,0,0.1755,0.1756,0.1779,0.1798,0.181,0.1838,0.1847,0.1887,0.1933,0.1964,0.1963,0.2069,0.2059,0.2093,0.212,0.2134,0.2178,0.2113,0.225,0.2259,0.2268,0.2306,0.2319,0.2163,0.2163,0.2162,0.2162,0,0.1734,0.1761,0.1778,0.1818,0.183,0.1845,0.1865,0.1908,0.1958,0.2001,0.2061,0.2077,0.214,0.2157,0.2149,0.2228,0.224,0.2248,0.2204,0.2282,0.2319,0.2332,0.2166,0.2165,0.2165,0.2164,0,0,0.1684,0.1753,0.1761,0.1794,0.1841,0.1845,0.1887,0.1927,0.1983,0.2031,0.2117,0.2135,0.2185,0.2195,0.2218,0.2261,0.2358,0.2289,0.2291,0.2299,0.2517,0.2437,0.2444,0.241,0.2412,0.2414,0.2519,0,0.168,0.1705,0.1742,0.179,0.1814,0.1861,0.1903,0.194,0.2006,0.2105,0.213,0.2215,0.2192,0.2245,0.2286,0.235,0.2396,0.2328,0.2463,0.2466,0.2362,0.2457,0.2256,0.2325,0.2531,0.2533,0.2535,0,0.1668,0.1682,0.1712,0.1795,0.1809,0.1842,0.192,0.1957,0.2072,0.213,0.2214,0.2283,0.2356,0.2342,0.2448,0.2423,0.2472,0.2498,0.2504,0.2418,0.241,0.2283,0.2341,0.2556,0.2555,0.2553,0.2552,0,0.1616,0.1688,0.1712,0.1735,0.1807,0.1842,0.1879,0.1974,0.203,0.2175,0.2256,0.2354,0.2427,0.2499,0.2569,0.2542,0.2691,0.2664,0.2622,0.2617,0.2459,0.2435,0.2742,0.2742,0.2742,0.2742,0.2741,0,0.1605,0.1634,0.1702,0.1704,0.175,0.1812,0.189,0.1946,0.207,0.2155,0.228,0.2356,0.248,0.2587,0.2625,0.2669,0.2748,0.2628,0.2646,0.2467,0.2443,0.2646,0.2634,0.2746,0.2745,0.2744,0.2743,0,0.1567,0.1607,0.1655,0.1715,0.1739,0.1771,0.1877,0.1931,0.2054,0.2177,0.2234,0.2397,0.2524,0.2636,0.2764,0.2729,0.2786,0.2784,0.2549,0.2535,0.2643,0.2632,0.2731,0.2729,0.2728,0.2726,0.2725,0,0.156,0.1583,0.1643,0.167,0.1709,0.177,0.1805,0.1907,0.1975,0.2174,0.2223,0.241,0.2505,0.2658,0.2667,0.2733,0.2801,0.2559,0.2438,0.2639,0.2647,0.2637,0.2628,0.2254,0.2249,0.2246,0.2242,0,0.1543,0.1579,0.1598,0.1629,0.1674,0.1729,0.1795,0.184,0.1973,0.2075,0.2205,0.2304,0.2445,0.2417,0.2509,0.2505,0.2528,0.2475,0.2797,0.2275,0.2194,0.22,0.2206,0.2207,0.2211,0.2213,0.2215,0.2217,0.1545,0.1556,0.157,0.1631,0.1668,0.1696,0.1687,0.1772,0.1848,0.1958,0.208,0.2144,0.2208,0.2223,0.2196,0.2182,0.2329,0.2228,0.2239,0.2254,0.2167,0.2087,0.2062,0.2065,0.2067,0.2069,0.2071,0,0.1548,0.1538,0.1561,0.159,0.1608,0.1657,0.1678,0.1662,0.1696,0.1804,0.1876,0.1782,0.179,0.1884,0.179,0.1783,0.175,0.1731,0.1674,0.1711,0.1743,0.1628,0.1382,0.138,0.1377,0.1375,0,0,0.1503,0.1497,0.1509,0.1527,0.1575,0.1513,0.1507,0.1511,0.1533,0.1524,0.1535,0.1672,0.18,0.1552,0.1535,0.1443,0.1557,0.139,0.1947,0.1915,0.1944,0.2042,0.1908,0,0,0,0,0]},{"header":{"parameterUnit":"m.s-1","parameterCategory":2,"la1":30.2991,"la2":30.254,"lo1":-89.0895,"lo2":-89.0444,"dy":0.0017,"dx":0.0017,"nx":28,"ny":28,"refTime":"2025-02-05T09:00:00:Z","depth":"2","parameterNumber":3,"parameterNumberName":"V-component_of_CURRENTS"},"data":[0,0,0,0,0,0,0,0,0,0,0,0,0,0,0,0,0,0,0,0,0,0,0,0,0,0,0,0,0,0,0,0,0,0,0,0,0,0,0,0,0,0,0,0,0,0,0,0,0,0,0,0,0,0,0,0,0,0,0.0253,0.0253,0,0.0152,0.015,0.0148,0.008,0.0081,0.0082,0.0082,0.0038,0.0037,0.0035,0,0,0,0,0,0,0,0,0,0,0,0,0,0.0254,0.0254,0.0253,0.0253,0.0253,0.0152,0.015,0.0148,0.008,0.0081,0.0082,0.0082,0.0039,0.0037,0.0035,0,0,0,0,0,0,0,0,0,0,0,0,0,0.0203,0.0254,0.0253,0.0215,0.0212,0.0153,0.015,0.0147,0.008,0.0081,0.0082,0.0083,0.004,0.0037,0.0035,0.0002,0,0,0.0027,0.0026,0,0,0,0,0,0,0,0,0.0206,0.0202,0.0221,0.0218,0.0214,0.014,0.0135,0.0105,0.008,0.0118,0.0082,0.0083,0.0084,0.0078,0.004,0.0,-0.0002,0.0027,0.0025,0.0024,0.0023,0,0,0,0,0,0,0,0.021,0.0205,0.0202,0.0221,0.0217,0.0158,0.0152,0.0127,0.009,0.0115,0.0113,0.0119,0.0081,0.0043,0.0039,-0.0002,0.0027,0.0024,0.0023,0.0022,-0.007,-0.0071,0,0,0,0,0,0,0.0251,0.0209,0.0205,0.02,0.0225,0.0159,0.0151,0.0153,0.0089,0.0083,0.0118,0.0116,0.0047,0.0042,0.0038,0.0034,0.0024,0.0022,0.002,-0.0069,-0.007,-0.0071,0,0,0,0,0,0,0.0251,0.0251,0.021,0.0211,0.0203,0.016,0.0162,0.0151,0.0115,0.0093,0.0086,0.0096,0.0047,0.0041,0.0024,0.0031,0.0021,0.0018,-0.0068,-0.0069,-0.0071,0.0004,0,0,0,0,0,0,0.0251,0.0252,0.0258,0.0214,0.0205,0.0198,0.0162,0.0149,0.0123,0.0119,0.0071,0.0067,0.0047,0.0028,0.0022,0.0028,0.0016,-0.0067,-0.0069,-0.007,0.0003,0.0006,0.0008,0,0,0,0,0,0.0252,0.0261,0.0258,0.0258,0.0218,0.02,0.0189,0.0152,0.0122,0.0117,0.0079,0.0069,0.0012,0.0026,0.0019,0.0024,-0.0066,-0.0068,-0.007,0.0002,0.0005,0.0008,0,0,0,0,0,0,0.0264,0.0255,0.0251,0.0258,0.0246,0.0194,0.018,0.0152,0.0109,0.0104,0.0064,0.0058,0.0043,0.0014,0.003,-0.0013,-0.0032,-0.0035,0.0025,0.0028,0.003,0.0068,0.0014,0,0,0,0,0,0.0274,0.0273,0.0265,0.0268,0.0265,0.0218,0.0201,0.0185,0.015,0.0129,0.009,0.005,0.0024,0.0014,-0.0016,-0.0034,-0.0049,-0.0042,-0.004,-0.0037,-0.0015,-0.0038,-0.0034,-0.0078,-0.0078,-0.0078,0,0,0.028,0.0275,0.0275,0.027,0.0245,0.0248,0.0206,0.0194,0.0192,0.0135,0.01,0.0061,0.0019,0.0,-0.001,-0.0017,-0.0036,-0.004,-0.0036,-0.0016,-0.0039,-0.0035,-0.003,-0.0079,-0.0079,-0.0079,0,0,0.0293,0.0286,0.0295,0.0291,0.0285,0.0264,0.0268,0.0225,0.0202,0.0179,0.0132,0.0103,0.0048,0.0025,0.0007,0.0001,-0.0022,-0.0023,0.0027,0.0004,0.0009,0.0013,-0.0002,0.0,-0.0021,-0.002,-0.002,0,0.03,0.0317,0.0295,0.0306,0.0312,0.0278,0.0297,0.0267,0.0222,0.0214,0.0187,0.0103,0.0065,0.0053,0.0046,0.0013,-0.0005,0.0027,0.0012,0.0016,0.0019,0.0003,0.0004,-0.0017,-0.0018,-0.0018,-0.0018,0,0.0333,0.0341,0.0343,0.035,0.0352,0.0362,0.0348,0.0331,0.0297,0.0272,0.0245,0.0185,0.0142,0.0113,0.0081,0.0074,0.0054,0.0022,0.0018,0.0029,0.001,0.001,-0.0012,-0.0014,-0.0015,-0.0015,0,0,0.0355,0.0366,0.0368,0.0385,0.0383,0.0393,0.0392,0.0394,0.0398,0.0346,0.0352,0.0282,0.0244,0.0219,0.0164,0.0142,0.0137,0.0096,0.0093,0.0106,0.0094,0.0058,0.0055,0.0103,0.0103,0.0103,0.0073,0,0.0387,0.0429,0.0424,0.046,0.0481,0.0463,0.0471,0.0468,0.0444,0.0437,0.0385,0.0368,0.0286,0.0273,0.0234,0.0165,0.014,0.0148,0.0061,0.0059,0.0046,0.0055,0.0053,0.0024,0.0073,0.0073,0.0073,0,0.0424,0.0449,0.0497,0.0528,0.0537,0.0553,0.0574,0.0582,0.0569,0.055,0.052,0.0478,0.0439,0.0371,0.0267,0.0274,0.0194,0.0137,0.0134,0.0081,0.0024,0.0018,0.0023,0.0073,0.0073,0.0073,0.0073,0,0.0464,0.05,0.0545,0.0555,0.0582,0.0599,0.0619,0.0615,0.0642,0.0633,0.0655,0.058,0.0569,0.0457,0.0322,0.0297,0.0218,0.0166,0.0061,0.0058,0.0031,0.0025,0.0105,0.0105,0.0105,0.0105,0.0105,0,0.0506,0.0538,0.0567,0.0591,0.0652,0.0654,0.0712,0.0711,0.0738,0.0795,0.0723,0.0746,0.0591,0.0521,0.0375,0.0225,0.0251,0.0085,0.0051,0.0053,0.005,0.0069,0.0065,0.0104,0.0104,0.0104,0.0104,0,0.0536,0.0554,0.0603,0.0646,0.0669,0.0714,0.079,0.0839,0.0846,0.0923,0.0938,0.0885,0.0789,0.0628,0.0462,0.0308,0.0162,0.0101,0.0119,0.0087,0.0003,0.0003,-0.0016,-0.0017,-0.0018,-0.0019,-0.002,0,0.0555,0.0583,0.0649,0.0692,0.0712,0.0784,0.0848,0.0887,0.0949,0.1008,0.1061,0.1006,0.0961,0.0701,0.0435,0.019,0.0169,0.0032,-0.0025,0.0024,-0.0008,-0.0006,-0.0004,-0.0032,-0.0033,-0.0034,-0.0034,0,0.0588,0.0605,0.0649,0.0741,0.0813,0.0914,0.1006,0.107,0.1138,0.12,0.1255,0.1228,0.098,0.0721,0.0391,0.0214,0.0065,0.0008,0.0066,-0.0005,0.0005,-0.0025,-0.0022,-0.0041,-0.004,-0.004,-0.0039,-0.0039,0.0606,0.0647,0.0709,0.0788,0.0887,0.1024,0.1123,0.1215,0.1331,0.1405,0.1373,0.1311,0.1036,0.0579,0.0317,0.0026,0.0018,-0.0096,-0.0092,-0.0088,-0.0088,-0.0081,-0.0142,-0.0142,-0.0142,-0.0142,-0.0142,0,0.0636,0.0686,0.0762,0.0879,0.0996,0.1044,0.122,0.131,0.1444,0.1458,0.1467,0.1188,0.0909,0.0611,0.0165,-0.0096,-0.0112,-0.0161,-0.0124,-0.0117,-0.0112,-0.0112,-0.0173,-0.0173,-0.0173,-0.0173,0,0,0.0661,0.0735,0.0771,0.0941,0.1033,0.1226,0.1334,0.1437,0.1484,0.1475,0.1406,0.1298,0.095,0.064,0.0302,0.0066,0.0035,0.0017,0.0057,0.0145,0.0154,-0.0071,-0.0064,0,0,0,0,0]}],[{"header":{"parameterUnit":"m.s-1","parameterCategory":2,"la1":30.2991,"la2":30.254,"lo1":-89.0895,"lo2":-89.0444,"dy":0.0017,"dx":0.0017,"nx":28,"ny":28,"refTime":"2025-02-05T09:00:00:Z","depth":"4","parameterNumber":2,"parameterNumberName":"U-component_of_CURRENTS"},"data":[0,0,0,0,0,0,0,0,0,0,0,0,0,0,0,0,0,0,0,0,0,0,0,0,0,0,0,0,0,0,0,0,0,0,0,0,0,0,0,0,0,0,0,0,0,0,0,0,0,0,0,0,0,0,0,0,0,0,0.0747,0.0747,0,0.0733,0.0733,0.0732,0.0789,0.0791,0.0792,0.0794,0.0859,0.0859,0.0859,0,0,0,0,0,0,0,0,0,0,0,0,0,0.0782,0.0782,0.0747,0.0747,0.0746,0.0733,0.0733,0.0732,0.0789,0.0791,0.0793,0.0794,0.0858,0.0859,0.0859,0,0,0,0,0,0,0,0,0,0,0,0,0,0.0769,0.0782,0.0747,0.0771,0.0773,0.0733,0.0733,0.0732,0.0788,0.0791,0.0793,0.0795,0.0858,0.0859,0.0859,0.0817,0,0,0.0861,0.0861,0,0,0,0,0,0,0,0,0.077,0.0768,0.0768,0.077,0.0772,0.0763,0.0769,0.0764,0.0788,0.0785,0.0794,0.0796,0.0831,0.0834,0.0828,0.082,0.0822,0.0861,0.0861,0.0861,0.0861,0,0,0,0,0,0,0,0.0771,0.0769,0.0743,0.0768,0.077,0.0769,0.077,0.0768,0.0798,0.0785,0.0789,0.0783,0.0833,0.0827,0.083,0.0823,0.0861,0.0861,0.0861,0.0862,0.0932,0.0934,0,0,0,0,0,0,0.0768,0.0769,0.0744,0.0742,0.0774,0.0767,0.0768,0.0765,0.0797,0.0802,0.0782,0.0786,0.0825,0.0829,0.0832,0.0903,0.0861,0.0862,0.0862,0.0931,0.0933,0.0934,0,0,0,0,0,0,0.0769,0.0766,0.0744,0.0754,0.0751,0.0764,0.076,0.0764,0.0795,0.0793,0.0801,0.0814,0.0827,0.0832,0.0878,0.0901,0.0862,0.0862,0.0929,0.0931,0.0934,0.0967,0,0,0,0,0,0,0.077,0.0767,0.0774,0.0754,0.0751,0.0753,0.0758,0.0762,0.0785,0.0792,0.0822,0.0828,0.0829,0.0878,0.0879,0.0901,0.0863,0.0927,0.093,0.0933,0.0964,0.097,0.0976,0,0,0,0,0,0.0772,0.0766,0.0775,0.0772,0.0757,0.0754,0.0754,0.077,0.0785,0.0806,0.0835,0.0829,0.0898,0.0879,0.088,0.0903,0.0925,0.0929,0.0933,0.0961,0.0969,0.0976,0,0,0,0,0,0,0.0781,0.077,0.078,0.0772,0.0781,0.0764,0.0771,0.0785,0.0818,0.0832,0.0843,0.0851,0.0899,0.0899,0.0879,0.0936,0.0912,0.0916,0.0934,0.0941,0.0947,0.0955,0.0863,0,0,0,0,0,0.0784,0.0785,0.078,0.0778,0.078,0.0783,0.0786,0.08,0.0816,0.0834,0.0855,0.0881,0.0904,0.0925,0.0939,0.0964,0.0972,0.0984,0.099,0.0995,0.1005,0.1044,0.1054,0.0946,0.0946,0.0946,0,0,0.078,0.078,0.0777,0.0781,0.0782,0.0793,0.0793,0.0804,0.0829,0.0833,0.0883,0.09,0.0916,0.0953,0.0974,0.0963,0.103,0.0999,0.1003,0.1011,0.1049,0.1059,0.1068,0.0949,0.0948,0.0948,0,0,0.0771,0.0779,0.078,0.0795,0.0808,0.0811,0.0825,0.0833,0.086,0.0898,0.0913,0.0948,0.0981,0.0998,0.1009,0.1054,0.1058,0.1068,0.1105,0.1143,0.1152,0.116,0.1178,0.1188,0.1073,0.1073,0.1073,0,0.0774,0.0775,0.0781,0.0796,0.0808,0.0827,0.0841,0.0862,0.0894,0.0918,0.0928,0.0992,0.0998,0.1047,0.1069,0.1065,0.1091,0.1073,0.115,0.1158,0.1166,0.1182,0.1192,0.1075,0.1075,0.1075,0.1075,0,0.0767,0.0783,0.0785,0.0814,0.0833,0.0845,0.0875,0.0912,0.0942,0.0962,0.1027,0.1045,0.1087,0.1094,0.1095,0.1157,0.1159,0.1149,0.1128,0.1179,0.1193,0.1202,0.1078,0.1078,0.1077,0.1077,0,0,0.0733,0.0772,0.0777,0.0802,0.0846,0.0857,0.0908,0.095,0.0994,0.1037,0.1091,0.1129,0.115,0.1166,0.1178,0.1211,0.1271,0.1214,0.1215,0.1224,0.136,0.1269,0.127,0.1289,0.1291,0.1293,0.1346,0,0.073,0.0758,0.0781,0.0822,0.0839,0.0886,0.0934,0.0985,0.1031,0.1091,0.1126,0.1178,0.1177,0.1207,0.1244,0.1271,0.1301,0.1257,0.1317,0.1318,0.1225,0.128,0.1299,0.1353,0.1355,0.1356,0.1358,0,0.0714,0.0742,0.0773,0.0838,0.085,0.0887,0.097,0.1014,0.1099,0.1142,0.1207,0.1238,0.1304,0.1287,0.1371,0.1355,0.1365,0.1376,0.1378,0.1289,0.1245,0.1295,0.1375,0.1373,0.1372,0.1371,0.137,0,0.0682,0.0734,0.0762,0.0784,0.086,0.0898,0.0945,0.1031,0.1084,0.1179,0.1232,0.1308,0.1362,0.1403,0.1433,0.1418,0.1514,0.1483,0.1407,0.14,0.1449,0.144,0.1534,0.1534,0.1533,0.1533,0.1533,0,0.066,0.0688,0.0755,0.0775,0.0828,0.0889,0.096,0.1022,0.1122,0.1185,0.1262,0.1326,0.1402,0.1461,0.1468,0.1477,0.1545,0.1426,0.1416,0.1461,0.1453,0.1455,0.1446,0.1535,0.1535,0.1534,0.1534,0,0.0615,0.0658,0.0697,0.078,0.0812,0.0851,0.0962,0.1012,0.1121,0.121,0.1246,0.1367,0.1445,0.1499,0.1561,0.1514,0.1524,0.1503,0.1555,0.1544,0.1372,0.1364,0.1418,0.1416,0.1414,0.1412,0.141,0,0.0592,0.0606,0.0687,0.0714,0.0755,0.0828,0.0879,0.0997,0.1051,0.1221,0.1252,0.1375,0.1438,0.147,0.1519,0.153,0.1505,0.1488,0.142,0.138,0.1364,0.1359,0.1354,0.1407,0.1406,0.1405,0.1405,0,0.0548,0.0579,0.0612,0.0667,0.0719,0.0771,0.0851,0.0892,0.1029,0.1144,0.1241,0.1291,0.1378,0.1421,0.1449,0.1446,0.1488,0.1464,0.1468,0.1404,0.1366,0.1352,0.1349,0.1397,0.1398,0.1399,0.14,0,0.0515,0.0523,0.0567,0.0611,0.0664,0.0691,0.0748,0.0828,0.0908,0.1098,0.1126,0.1261,0.1373,0.1379,0.1402,0.1401,0.1364,0.1295,0.1306,0.1315,0.1254,0.1189,0.117,0,0,0,0,0,0.0476,0.0477,0.0509,0.0548,0.0592,0.0622,0.0719,0.0782,0.0922,0.0964,0.1049,0.1125,0.1191,0.1255,0.1231,0.1323,0.1346,0.1284,0.1265,0.1355,0.1364,0.1299,0,0,0,0,0,0,0.0455,0.0469,0.0485,0.0483,0.0491,0.0533,0.0585,0.0679,0.0716,0.087,0.092,0.1033,0.1117,0.1194,0.1203,0.1218,0.1176,0.1365,0.1362,0.135,0.1358,0.1365,0.1302,0,0,0,0,0]},{"header":{"parameterUnit":"m.s-1","parameterCategory":2,"la1":30.2991,"la2":30.254,"lo1":-89.0895,"lo2":-89.0444,"dy":0.0017,"dx":0.0017,"nx":28,"ny":28,"refTime":"2025-02-05T09:00:00:Z","depth":"4","parameterNumber":3,"parameterNumberName":"V-component_of_CURRENTS"},"data":[0,0,0,0,0,0,0,0,0,0,0,0,0,0,0,0,0,0,0,0,0,0,0,0,0,0,0,0,0,0,0,0,0,0,0,0,0,0,0,0,0,0,0,0,0,0,0,0,0,0,0,0,0,0,0,0,0,0,0.0307,0.0307,0,0.0292,0.0292,0.0291,0.0275,0.0275,0.0275,0.0275,0.0227,0.0226,0.0224,0,0,0,0,0,0,0,0,0,0,0,0,0,0.0292,0.0293,0.0307,0.0307,0.0307,0.0292,0.0292,0.0291,0.0275,0.0275,0.0275,0.0275,0.0227,0.0226,0.0224,0,0,0,0,0,0,0,0,0,0,0,0,0,0.0289,0.0293,0.0307,0.0298,0.0298,0.0292,0.0292,0.0291,0.0275,0.0275,0.0275,0.0275,0.0228,0.0226,0.0224,0.0214,0,0,0.0218,0.0218,0,0,0,0,0,0,0,0,0.0289,0.0289,0.03,0.0299,0.0298,0.0287,0.0269,0.0264,0.0275,0.0282,0.0275,0.0275,0.0245,0.0242,0.0237,0.0212,0.021,0.0218,0.0217,0.0216,0.0216,0,0,0,0,0,0,0,0.0289,0.0289,0.0299,0.03,0.0299,0.0286,0.0285,0.0268,0.0262,0.0281,0.0281,0.0282,0.0244,0.0239,0.0236,0.0209,0.0218,0.0217,0.0215,0.0215,0.0156,0.0156,0,0,0,0,0,0,0.0296,0.029,0.03,0.0299,0.0295,0.0286,0.0285,0.0289,0.0263,0.026,0.0282,0.0281,0.0242,0.0238,0.0234,0.0218,0.0216,0.0215,0.0214,0.0156,0.0156,0.0155,0,0,0,0,0,0,0.0296,0.0298,0.03,0.0295,0.0295,0.0287,0.0291,0.0289,0.0288,0.0264,0.026,0.0284,0.0242,0.0236,0.0214,0.0216,0.0214,0.0212,0.0157,0.0156,0.0156,0.0188,0,0,0,0,0,0,0.0296,0.0298,0.0304,0.0296,0.0295,0.03,0.0291,0.0289,0.029,0.0289,0.0264,0.026,0.0241,0.0217,0.0212,0.0214,0.0211,0.0158,0.0157,0.0156,0.0188,0.0189,0.019,0,0,0,0,0,0.0295,0.0305,0.0304,0.0306,0.0304,0.0301,0.0299,0.0291,0.029,0.029,0.0268,0.0261,0.0208,0.0215,0.021,0.0211,0.0158,0.0157,0.0156,0.0187,0.0189,0.019,0,0,0,0,0,0,0.03,0.0304,0.0303,0.0313,0.0309,0.0299,0.0303,0.0296,0.0281,0.0281,0.0255,0.0249,0.023,0.0213,0.0221,0.0189,0.0182,0.018,0.0207,0.0208,0.0209,0.0218,0.0209,0,0,0,0,0,0.0305,0.0314,0.0311,0.0319,0.0321,0.0313,0.0312,0.0307,0.0293,0.0287,0.0269,0.0245,0.0221,0.021,0.0187,0.0172,0.0145,0.0167,0.0168,0.0169,0.0171,0.0125,0.0122,0.0152,0.0152,0.0152,0,0,0.031,0.0313,0.0319,0.0321,0.032,0.0321,0.0312,0.0315,0.0312,0.0284,0.0273,0.025,0.0217,0.0197,0.0187,0.0184,0.0146,0.0168,0.0169,0.017,0.0124,0.0121,0.0118,0.0151,0.0151,0.0152,0,0,0.0321,0.0328,0.0338,0.0338,0.0341,0.0333,0.0336,0.0329,0.0322,0.0308,0.0284,0.026,0.023,0.0203,0.0186,0.0178,0.0153,0.0174,0.0187,0.0143,0.014,0.0137,0.0101,0.0095,0.0174,0.0175,0.0175,0,0.0325,0.034,0.0339,0.0347,0.0352,0.034,0.0349,0.0338,0.0321,0.0315,0.0309,0.0257,0.0231,0.02,0.0195,0.0182,0.0155,0.0188,0.0145,0.0142,0.0138,0.0102,0.0095,0.0176,0.0176,0.0176,0.0176,0,0.0341,0.0355,0.0362,0.0369,0.0369,0.0378,0.0367,0.0362,0.0354,0.0338,0.0312,0.0274,0.0244,0.023,0.021,0.0176,0.0165,0.0153,0.0146,0.0137,0.0099,0.0091,0.0178,0.0178,0.0177,0.0177,0,0,0.0346,0.0371,0.0374,0.0388,0.0387,0.0391,0.0385,0.0376,0.0377,0.0348,0.0338,0.0291,0.0274,0.0252,0.0224,0.0184,0.0138,0.0163,0.016,0.0135,0.0044,0.0043,0.0034,0.0119,0.0118,0.0117,0.0028,0,0.036,0.0389,0.0392,0.0414,0.0428,0.0421,0.0419,0.0406,0.039,0.0374,0.0329,0.0308,0.0281,0.0272,0.0226,0.0161,0.0118,0.0163,0.005,0.0046,0.0052,0.0025,0.0113,0.0022,0.002,0.0019,0.0018,0,0.0373,0.0393,0.0425,0.0448,0.0455,0.0463,0.0467,0.0465,0.0433,0.042,0.0386,0.0351,0.0293,0.0272,0.0155,0.0186,0.0119,0.0065,0.006,0.0043,0.003,0.0029,0.0003,0.0004,0.0005,0.0006,0.0007,0,0.0383,0.0414,0.0445,0.0454,0.0474,0.0488,0.0497,0.0481,0.0491,0.0453,0.045,0.0371,0.0342,0.0243,0.0138,0.0144,0.0005,-0.0003,-0.007,-0.0071,-0.0055,-0.0052,-0.0092,-0.0092,-0.0092,-0.0092,-0.0091,0,0.0396,0.042,0.0459,0.0478,0.0515,0.0518,0.0552,0.0543,0.054,0.0549,0.0483,0.0464,0.0333,0.0243,0.014,0.0012,0.0003,-0.0075,-0.0098,-0.004,-0.0033,-0.0061,-0.0056,-0.0095,-0.0094,-0.0094,-0.0093,0,0.04,0.0425,0.0465,0.0506,0.0525,0.0553,0.0606,0.0628,0.0616,0.0625,0.0617,0.0528,0.0407,0.0272,0.0105,0.0024,-0.0104,-0.0148,-0.0073,-0.0089,-0.0152,-0.0144,-0.0234,-0.0235,-0.0236,-0.0236,-0.0237,0,0.0404,0.0427,0.0493,0.0527,0.0552,0.0604,0.0644,0.0664,0.0687,0.0663,0.0663,0.0557,0.0481,0.0249,0.0098,-0.0107,-0.0133,-0.0197,-0.0181,-0.0155,-0.0168,-0.016,-0.0152,-0.0238,-0.0238,-0.0239,-0.0239,0,0.0412,0.0441,0.048,0.0554,0.061,0.067,0.0725,0.0749,0.0765,0.0757,0.07,0.0579,0.0437,0.0251,0.0091,-0.0055,-0.0155,-0.0206,-0.0205,-0.019,-0.0161,-0.0171,-0.0163,-0.0241,-0.0241,-0.0241,-0.0241,0,0.042,0.0451,0.0513,0.0575,0.0646,0.071,0.0742,0.077,0.0794,0.0767,0.0743,0.0591,0.0501,0.0277,0.0127,-0.0017,-0.0052,-0.0091,-0.0097,-0.0096,-0.003,0.0029,-0.002,0,0,0,0,0,0.0426,0.0467,0.0529,0.0603,0.0673,0.0716,0.0783,0.0808,0.0826,0.0796,0.0774,0.0642,0.0416,0.031,0.0166,0.0105,-0.0083,-0.007,-0.0132,-0.0256,-0.0253,-0.0199,0,0,0,0,0,0,0.0431,0.0493,0.0529,0.0615,0.0664,0.0748,0.0792,0.0807,0.0788,0.0778,0.0659,0.0603,0.038,0.0495,0.016,0.0115,0.0056,-0.0176,-0.0179,-0.0257,-0.0255,-0.0252,-0.0196,0,0,0,0,0]}]]